Location: Oshawa
(43.9000°N, 78.8670°W)
Time: 19:09:52
(UTC-05:00)

Daily predictions for brighter satellites

Satellite Brightness Start Highest point End
(mag) Time Altitude Azimuth Time Altitude Azimuth Time Altitude Azimuth
Cosmos 1295 Rocket 4.4 17:01:04 10° N 17:07:12 77° E 17:13:16 10° SSE
Cosmos 2181 Rocket 4.1 17:01:55 10° S 17:08:17 80° E 17:14:45 10° N
SL-27 R/B 2.5 17:05:56 10° NNW 17:09:36 77° ENE 17:13:13 10° SSE
CZ-2C R/B 3.7 17:06:32 10° NNE 17:11:01 85° ESE 17:15:31 10° SSW
Okean 1 4.3 17:15:27 10° SSE 17:18:56 28° E 17:22:28 10° NNE
Cosmos 1536 4.0 17:16:02 10° NNW 17:19:57 48° W 17:23:52 10° SSW
Cosmos 1844 3.7 17:14:43 10° SSW 17:20:15 75° ESE 17:25:49 10° NNE
Abrixas 3.0 17:17:37 10° WNW 17:20:27 40° NNE 17:23:15 10° E
Cosmos 1346 Rocket 3.8 17:26:39 10° SSE 17:29:51 25° E 17:33:03 10° NE
Cosmos 375 4.5 17:26:26 10° NNW 17:31:02 60° NE 17:34:53 10° SE
ISS -2.2 17:29:30 10° W 17:32:33 35° NNW 17:35:10 13° NE
Cosmos 1544 Rocket 3.6 17:28:23 10° N 17:32:53 88° E 17:37:21 10° S
USA 116 4.5 17:29:42 10° NNE 17:35:06 70° ESE 17:40:14 10° S
PAYLOAD A 4.2 17:30:37 10° S 17:35:26 75° WSW 17:40:29 10° NNW
Cosmos 2278 Rocket 2.3 17:29:58 10° S 17:35:31 61° ESE 17:41:06 10° NNE
COSMO-SKYMED 1 3.7 17:33:30 10° NE 17:37:01 24° E 17:40:32 10° SSE
Cosmos 1975 Rocket 4.2 17:34:27 10° SSW 17:38:35 45° WNW 17:42:46 10° N
SMAP 3.0 17:35:19 10° SSE 17:39:58 80° ENE 17:44:39 10° N
USA 234 3.3 17:34:55 11° NE 17:41:23 85° SE 17:47:56 10° SW
CZ-4 R/B 4.4 17:42:39 10° SSE 17:46:46 65° ENE 17:50:54 10° N
BREEZE M DEB (TANK) 3.1 17:44:32 10° WNW 17:47:29 46° NNE 17:53:28 14° E
SL-8 R/B 3.7 17:44:18 10° WSW 17:49:05 83° SSE 17:52:28 19° ENE
Genesis I 3.1 17:46:20 10° NNW 17:50:17 76° NE 17:54:11 10° SE
NOSS 3-4 (A) 4.3 17:45:27 10° NNW 17:51:45 36° NE 17:57:35 13° E
NOSS 3-4 (C) 4.3 17:45:34 10° NNW 17:51:51 36° NE 17:57:35 13° E
Cosmos 1536 Rocket 3.5 17:50:42 10° S 17:55:10 85° E 17:59:40 10° N
Nadezhda 3 Rocket 4.2 17:50:46 10° SSE 17:56:40 49° E 18:02:41 10° NNE
Cosmos 1833 Rocket 3.0 17:51:28 10° NNW 17:56:52 43° ENE 18:02:12 10° SE
Cosmos 1025 Rocket 4.2 17:56:03 10° SE 17:59:25 22° E 17:59:27 22° E
Cosmos 2082 Rocket 2.3 17:54:06 10° NNW 17:59:38 52° ENE 18:05:10 10° SE
NOSS 3-3 (A) 4.0 17:53:34 10° SSW 17:59:46 85° SE 18:05:35 14° NE
NOSS 3-3 (C) 4.0 17:53:40 10° SSW 17:59:52 84° SE 18:05:40 15° NE
Cosmos 921 Rocket 3.6 17:57:51 10° SSE 18:01:42 35° E 18:03:30 24° NE
YAOGAN 1 3.1 17:59:28 10° S 18:03:44 62° W 18:08:03 10° NNW
Cosmos 1238 Rocket 3.4 18:00:58 10° SSW 18:03:47 42° WNW 18:06:48 10° N
Meteor 2-21 Rocket 4.5 17:57:55 10° N 18:04:02 57° ENE 18:10:04 10° SSE
SPOT 3 Rocket 4.2 17:59:19 10° S 18:04:26 60° WSW 18:09:34 10° NNW
MSX 3.8 17:58:55 10° SSE 18:04:40 88° ENE 18:10:27 10° NNW
Cosmos 1975 2.9 18:00:45 10° N 18:04:49 79° W 18:08:51 10° S
Cosmos 1743 3.1 18:01:34 10° N 18:05:15 39° ENE 18:08:52 10° SSE
CZ-4 R/B 2.9 18:01:24 10° SSW 18:05:19 40° W 18:09:13 10° NNW
GRACE-1 4.5 18:04:06 10° SSE 18:06:18 37° ESE 18:06:18 37° ESE
ATLAS 2AS CENTAUR R/B 4.0 17:59:21 10° NW 18:07:03 51° WSW 18:14:14 10° S
COSMOS 2487 2.4 18:05:47 10° NNW 18:09:23 89° NE 18:12:58 10° SSE
Cosmos 1500 3.2 18:06:08 10° N 18:09:59 85° W 18:13:50 10° S
GEOS 3 Rocket 3.8 18:06:32 16° ESE 18:10:25 46° NE 18:15:18 10° NNW
Cosmos 1484 Rocket 2.5 18:08:25 10° SSE 18:12:09 72° ENE 18:15:52 10° N
CZ-2C R/B 3.5 18:08:09 10° S 18:13:00 50° W 18:18:01 10° NNW
MONITOR-E 4.3 18:10:54 10° S 18:14:05 78° WSW 18:17:18 10° NNW
Meteor 1-28 Rocket 3.9 18:15:53 33° ESE 18:15:53 33° ESE 18:19:06 10° SSE
Tiangong 1 1.7 18:16:48 10° SW 18:19:40 40° SSE 18:19:54 39° SSE
Meteor 1-13 Rocket 4.2 18:15:10 10° S 18:20:48 68° E 18:26:36 10° NNE
SKYMED 2 3.4 18:21:59 17° NNE 18:25:19 77° ESE 18:29:39 10° S
IDEFIX/ARIANE 42P 4.1 18:24:42 10° SSW 18:29:29 37° W 18:34:18 10° NNW
FALCON 9 R/B 4.1 18:05:14 10° WSW 18:30:27 51° S 18:35:32 22° ESE
BREEZE-M R/B 4.0 18:22:18 10° WSW 18:32:35 80° NNW 18:34:45 38° ENE
Meteor 2-9 Rocket 4.1 18:31:46 10° N 18:37:07 54° ENE 18:42:20 10° SSE
Meteor 2-4 Rocket 3.6 18:31:57 10° S 18:37:09 53° E 18:38:55 37° NE
Okean 1-7 Rocket 3.5 18:32:44 10° S 18:37:15 87° E 18:39:56 24° N
Cosmos 1190 Rocket 4.3 18:37:19 10° N 18:41:50 44° NE 18:41:50 44° NE
Cosmos 1934 Rocket 3.9 18:40:33 10° N 18:46:44 68° E 18:52:59 10° SSE
Cosmos 1535 Rocket 4.4 18:44:05 10° N 18:50:26 90° E 18:56:39 10° S
NOSS 2-1 (D) 3.3 18:49:53 10° SW 18:53:30 80° SW 18:53:30 80° SW
NOSS 2-1 (C) 3.3 18:50:34 10° SW 18:54:09 78° SSW 18:54:09 78° SSW
Timation 1 Rocket 4.4 18:55:49 10° SSW 19:01:46 74° WNW 19:04:20 36° NNE
Meteor 2-8 Rocket 4.3 18:58:17 10° S 19:04:20 75° E 19:06:35 41° NNE
Cosmos 2297 4.3 19:02:10 10° SW 19:07:40 53° WNW 19:10:21 29° N
BREEZE M DEB (TANK) 2.9 19:03:26 10° WSW 19:08:45 56° WSW 19:08:45 56° WSW
ISS -0.4 19:07:08 10° NW 19:07:50 14° NW 19:07:50 14° NW
NOSS 2-1 (E) 4.1 19:09:11 10° SW 19:12:13 51° WSW 19:12:13 51° WSW
COSMO-SKYMED 1 4.2 19:10:34 17° NNW 19:13:14 33° WNW 19:17:06 10° SW
Cosmos 1821 Rocket 4.4 19:09:45 10° NNW 19:15:43 59° W 19:21:41 10° S
Cosmos 2278 Rocket 4.1 19:15:33 10° WSW 19:20:02 24° NW 19:23:40 14° N
USA 234 4.1 19:22:16 34° NNE 19:24:02 40° NNW 19:30:02 10° W
Cosmos 1605 Rocket 3.9 19:20:01 10° N 19:26:21 87° W 19:32:34 10° S
CZ-3B DEB 3.7 19:23:13 10° W 19:28:34 47° N 19:31:40 38° NNE
Cosmos 2056 Rocket 4.0 19:28:13 10° SSW 19:32:40 57° WSW 19:32:40 57° WSW
Cosmos 1833 Rocket 4.4 19:35:46 10° NW 19:40:35 30° WSW 19:45:22 10° SSW
NOSS 3-4 (A) 4.1 19:36:12 10° NW 19:43:09 64° WSW 19:45:08 48° S
NOSS 3-4 (C) 4.1 19:36:18 10° NW 19:43:15 65° WSW 19:45:08 49° S
Cosmos 2082 Rocket 4.3 19:38:53 10° NW 19:43:20 24° WSW 19:47:48 10° SSW
